Location: ???????
(55.3754°N, 39.3545°E)
Time: 10:35:29
(UTC+00:00)

Cosmos 1869 - Pass Details

Date: 14 April 2026
Orbit: 443 x 468 km, 82.5° (Epoch: 19 May)

Event Time Altitude Azimuth Distance (km) Brightness Sun altitude
Exits shadow 19:54:38 55° 277° (W) 574 3.5 -22.4°
Maximum altitude 19:54:44 55° 285° (WNW) 572 3.5 -22.4°
Drops below altitude 10° 19:58:17 10° 5° (N) 1,643 6.6 -22.6°
Sets 20:00:25 0° 10° (N) 2,528 7.6 -22.7°
